Hourly Data Report for September 27, 2017

All times are specified in Local Standard Time (LST). Add 1 hour to adjust for Daylight Saving Time where and when it is observed.

KAMLOOPS A
BRITISH COLUMBIA

50°42'09.000" N
120°26'55.000" W
345.30 m
1163781
71887
YKA

Download Data

Hourly Data (September 2017)
Hourly Data Report for September 27, 2017
Temp Definition
°C
Dew Point Temp Definition
°C
Rel Hum Definition
%
Wind Dir Definition
10's deg

Wind Spd Definition
km/h
Visibility Definition
km
Stn Press Definition
kPa
Hmdx Definition


Wind Chill Definition


Weather Definition


TIME
00:00 Legend Double Dagger 12.6 7.3 70 10 7 64.4 98.20     LegendNANA
01:00 Legend Double Dagger 11.9 7.8 76 10 3 64.4 98.23     Clear
02:00 Legend Double Dagger 11.7 7.3 74 12 9 64.4 98.27     LegendNANA
03:00 Legend Double Dagger 10.5 6.6 77 7 4 64.4 98.29     LegendNANA
04:00 Legend Double Dagger 9.1 6.2 82 0 1 64.4 98.31     Clear
05:00 Legend Double Dagger 9.0 6.5 84 8 8 64.4 98.34     LegendNANA
06:00 Legend Double Dagger 8.6 6.1 84 36 1 64.4 98.38     LegendNANA
07:00 Legend Double Dagger 9.7 7.0 83 11 7 64.4 98.38     Clear
08:00 Legend Double Dagger 12.2 7.5 73 9 10 64.4 98.40     LegendNANA
09:00 Legend Double Dagger 13.9 8.3 69 11 14 64.4 98.37     LegendNANA
10:00 Legend Double Dagger 16.3 8.8 61 11 15 64.4 98.33     Mainly Clear
11:00 Legend Double Dagger 18.2 8.6 53 11 14 64.4 98.26     LegendNANA
12:00 Legend Double Dagger 20.5 9.2 48 11 13 64.4 98.17     LegendNANA
13:00 Legend Double Dagger 22.7 9.0 41 12 11 64.4 98.05     Mainly Clear
14:00 Legend Double Dagger 24.0 8.6 37 12 9 64.4 97.95 25   LegendNANA
15:00 Legend Double Dagger 25.2 8.4 34 12 9 64.4 97.86 26   LegendNANA
16:00 Legend Double Dagger 25.9 8.7 33 11 9 64.4 97.79 27   Clear
17:00 Legend Double Dagger 24.0 8.2 36 10 12 64.4 97.76     LegendNANA
18:00 Legend Double Dagger 20.1 8.9 48 11 9 64.4 97.76     LegendNANA
19:00 Legend Double Dagger 19.2 8.6 50 10 18 64.4 97.80     Clear
20:00 Legend Double Dagger 16.7 9.1 60 11 13 64.4 97.84     LegendNANA
21:00 Legend Double Dagger 16.2 8.3 59 9 16 64.4 97.87     LegendNANA
22:00 Legend Double Dagger 14.9 8.2 64 11 15 64.4 97.90     Clear
23:00 Legend Double Dagger 14.9 7.5 61 11 19 64.4 97.93     LegendNANA

Notes on Data Quality.

Legend

  • E = Estimated
  • M = Missing
  • NA = Not Available
  • ‡ = Partner data that is not subject to review by the National Climate Archives
Date modified: